Regional Weather Roundup
Issued by NWS

Home | Current Version | Previous Version | Text Only | Print | Product List | Glossary Off
Versions: 1 2 3 4 5 6 7 8 9 10 11 12 13 14 15 16 17 18 19 20 21 22 23 24 25 26 27 28 29 30 31 32 33 34 35 36 37 38 39 40 41 42 43 44 45 46 47 48 49 50

000
ASUS45 KBOU 230607
RWRCO

WEATHER ROUNDUP FOR COLORADO
NATIONAL WEATHER SERVICE DENVER/BOULDER CO
1200 AM MDT SAT MAY 23 2015

NOTE: "FAIR" INDICATES FEW OR NO CLOUDS BELOW 12000 FEET WITH NO
SIGNIFICANT WEATHER AND/OR OBSTRUCTIONS TO VISIBILITY.

COZ001>005-013-030-031-230700-
...NORTHWEST COLORADO...

CITY           SKY/WX    TMP DP  RH WIND       PRES   REMARKS
CRAIG          CLOUDY    45  38  76 S5        30.02F
HAYDEN         CLOUDY    43  37  81 S7        30.05S
MEEKER         CLOUDY    43  40  89 MISG      30.07R
MOUNT WERNER   NOT AVBL
STEAMBOAT SPGS CLOUDY    41  38  91 NE8       30.08S
WALDEN         CLOUDY    37  34  87 S7        30.10R
$$

COZ006>008-011-230700-
...WEST CENTRAL VALLEYS...

CITY           SKY/WX    TMP DP  RH WIND       PRES   REMARKS
GRAND JUNCTION MOCLDY    50  46  86 S6        29.96F
MONTROSE       CLOUDY    53  36  52 SE13      30.00S
EAGLE          MOCLDY    46  45  93 CALM      30.08R
RIFLE          CLOUDY    49  43  80 W5        30.02S
DELTA          CLOUDY    52  44  76 MISG      29.98S
NUCLA          MOCLDY    46  36  66 N3        30.03R
$$

COZ017>023-064>068-230700-
...SOUTHWEST COLORADO...

CITY           SKY/WX    TMP DP  RH WIND       PRES   REMARKS
DURANGO        CLOUDY    48  39  71 NW10G18   30.03R
CORTEZ         MOCLDY    48  38  68 S5        30.02R
PAGOSA SPRINGS CLOUDY    46  36  68 CALM      30.05S
TELLURIDE      CLOUDY    38  36  91 SW6       30.15R
WOLF CREEK PAS NOT AVBL
$$

COZ009-010-012-014-032>034-037-058>063-230700-
...CENTRAL COLORADO...

CITY           SKY/WX    TMP DP  RH WIND       PRES   REMARKS
ASPEN          CLOUDY    44  37  76 S8        30.08R
BUENA VISTA    CLOUDY    45  35  68 SW3       30.10R
COPPER MTN     CLOUDY    34  25  69 NE5       30.23S WCI  30
BERTHOUD PASS  HAZE      27  19  74 W8        30.25S VSB 1/4 WCI  18
COTTONWOOD PAS CLOUDY    41  30  65 W6        30.17R
GUNNISON       CLOUDY    39  34  81 E5        30.13F
KREMMLING      CLOUDY    41  36  81 CALM      30.11F
LEADVILLE      LGT SNOW  32  32 100 W3        30.16R VSB 3/4
MONARCH PASS   CLOUDY    30  27  86 SW24      30.32S WCI  16
SALIDA         CLOUDY    51  35  53 SW7       30.15S
SUNLIGHT       CLOUDY    34  34 100 CALM      30.20S
WILKERSON PASS CLOUDY    32  30  93 SW6       30.26R WCI  26
$$

COZ069>075-230700-
...SAN LUIS VALLEY/SANGRE DE CRISTO MOUNTAINS...

CITY           SKY/WX    TMP DP  RH WIND       PRES   REMARKS
ALAMOSA        MOCLDY    48  37  65 E5        30.06F
LA VETA PASS   MOCLDY   N/A N/A N/A MISG      30.18F
SAGUACHE       MOCLDY    43  36  75 NE5       30.10F THUNDER
$$

COZ035-036-038>040-230700-
...NORTHERN COLORADO FRONT RANGE...

CITY           SKY/WX    TMP DP  RH WIND       PRES   REMARKS
DENVER INTL AP CLOUDY    48  47  96 CALM      30.05S
DMNS CITY PARK   N/A     48  48  97 W2        30.05F
AURORA         MOCLDY    47  47 100 W1        30.07R
FRONT RANGE AP NOT AVBL
ERIE MUNI ARPT LGT RAIN  49  48  97 CALM      30.06R
BOULDER MUN AP CLOUDY    48  48 100 CALM      30.05S
CENTENNIAL     MOCLDY    48  46  93 CALM      30.07R
BROOMFIELD     CLOUDY    46  46 100 CALM      30.07R
FORT COLLINS   CLOUDY    48  46  93 SE5       30.07R
LONGMONT       CLOUDY    51  49  92 NW3       30.06S
$$

COZ041-046-047-076>085-087-088-230700-
...PIKES PEAK/PALMER DIVIDE AND SOUTHERN FOOTHILLS...

CITY           SKY/WX    TMP DP  RH WIND       PRES   REMARKS
COLO. SPRINGS  MOCLDY    48  44  86 N13       30.05S
A. F. ACADEMY  MOCLDY    47  45  91 N8        30.06F
ELLICOTT       NOT AVBL
FALCON         PTCLDY    45  43  93 N14       30.08F
FORT CARSON    PTCLDY    49  46  87 N13       30.03R
LIMON          CLOUDY    50  48  93 N6        30.03R
MONUMENT HILL  NOT AVBL
TRINIDAD       PTCLDY    55  45  68 S10       30.02S
$$

COZ042>045-048>051-090-091-230700-
...NORTHEAST COLORADO...

CITY           SKY/WX    TMP DP  RH WIND       PRES   REMARKS
GREELEY ARPT   CLOUDY    48  46  93 E9        30.05R
AKRON          CLOUDY    51  51 100 E9        30.03F FOG
BURLINGTON     FOG       54  53  97 SE23G31   30.00F VSB 1/2
WRAY           RAIN     N/A N/A N/A SE12      30.05S
STERLING       FOG       46  46 100 E5        30.04S VSB 3/4
HOLYOKE        NOT AVBL
FORT MORGAN    LGT RAIN  48  47  95 NE8       30.05S VSB 1/2
$$

COZ086-089-092>099-230700-
...SOUTHEAST COLORADO...

CITY           SKY/WX    TMP DP  RH WIND       PRES   REMARKS
PUEBLO         MOCLDY    54  47  77 N18       30.00R
LA JUNTA       PTCLDY    61  49  64 SW7       29.93R
LAMAR          MOCLDY    55  53  93 NE9       29.95
SPRINGFIELD      N/A     55  53  93 S20       30.01S
$$


USA.gov is the U.S. government's official web portal to all federal, state and local government web resources and services.